• în România
  • Lista ţărilor
  • Pe 7 zile
  • Temperatura apei
  • Hartă satelitară
  • Meteo pe hartă
  • Widget-uri
  • user-avatar
    Intrare

    Meteo pe oră la Samarskiy

    Astăzi, 21 August, Marţi

    Timp Temperatura Precipitaţii Vânt Presiune Umiditate
    00:00 +17°C° 0 mm 2 m/s 752 mmHg 64%
    01:00 +17°C° 0 mm 3 m/s 752 mmHg 67%
    02:00 +17°C° 0 mm 3 m/s 752 mmHg 69%
    03:00 +17°C° 0 mm 3 m/s 752 mmHg 72%
    04:00 +17°C° 0 mm 3 m/s 752 mmHg 73%
    05:00 +17°C° 0 mm 3 m/s 752 mmHg 74%
    06:00 +18°C° 0 mm 3 m/s 752 mmHg 76%
    07:00 +20°C° 0 mm 3 m/s 752 mmHg 69%
    08:00 +22°C° 0 mm 3 m/s 752 mmHg 63%
    09:00 +25°C° 0 mm 4 m/s 752 mmHg 56%
    10:00 +26°C° 0 mm 4 m/s 752 mmHg 52%
    11:00 +28°C° 0 mm 5 m/s 751 mmHg 47%
    12:00 +29°C° 0 mm 5 m/s 751 mmHg 42%
    13:00 +29°C° 0 mm 5 m/s 751 mmHg 41%
    14:00 +29°C° 0 mm 5 m/s 751 mmHg 40%
    15:00 +29°C° 0 mm 6 m/s 751 mmHg 39%
    16:00 +28°C° 0 mm 5 m/s 750 mmHg 43%
    17:00 +27°C° 0 mm 4 m/s 750 mmHg 47%
    18:00 +25°C° 0 mm 3 m/s 750 mmHg 51%
    19:00 +24°C° 0 mm 3 m/s 750 mmHg 53%
    20:00 +22°C° 0 mm 3 m/s 750 mmHg 55%
    21:00 +20°C° 0 mm 3 m/s 750 mmHg 57%
    22:00 +20°C° 0 mm 3 m/s 750 mmHg 57%
    23:00 +19°C° 0 mm 3 m/s 750 mmHg 57%

    Mâine, 22 August, Miercuri

    Timp Temperatura Precipitaţii Vânt Presiune Umiditate
    00:00 +19°C° 0 mm 3 m/s 749 mmHg 57%
    01:00 +18°C° 0 mm 3 m/s 749 mmHg 57%
    02:00 +18°C° 0 mm 4 m/s 749 mmHg 56%
    03:00 +18°C° 0 mm 4 m/s 749 mmHg 56%
    04:00 +18°C° 0 mm 4 m/s 748 mmHg 56%
    05:00 +18°C° 0 mm 4 m/s 748 mmHg 55%
    06:00 +18°C° 0 mm 4 m/s 748 mmHg 55%
    07:00 +20°C° 0 mm 5 m/s 748 mmHg 48%
    08:00 +22°C° 0 mm 6 m/s 748 mmHg 42%
    09:00 +26°C° 0 mm 7 m/s 748 mmHg 35%
    10:00 +26°C° 0 mm 7 m/s 747 mmHg 37%
    11:00 +26°C° 0 mm 7 m/s 747 mmHg 38%
    12:00 +26°C° 0 mm 7 m/s 747 mmHg 40%
    13:00 +23°C° 0,2 mm 7 m/s 747 mmHg 51%
    14:00 +21°C° 0,2 mm 6 m/s 747 mmHg 62%
    15:00 +19°C° 0,2 mm 5 m/s 747 mmHg 73%
    16:00 +19°C° 0,2 mm 4 m/s 748 mmHg 76%
    17:00 +18°C° 0,2 mm 3 m/s 748 mmHg 79%
    18:00 +18°C° 0,2 mm 3 m/s 748 mmHg 82%
    19:00 +17°C° 0,1 mm 3 m/s 748 mmHg 83%
    20:00 +16°C° 0,1 mm 3 m/s 749 mmHg 84%
    21:00 +14°C° 0,1 mm 3 m/s 749 mmHg 86%
    22:00 +14°C° 0 mm 3 m/s 749 mmHg 86%
    23:00 +13°C° 0 mm 3 m/s 750 mmHg 87%

    Poimâine, 23 August, Joi

    Timp Temperatura Precipitaţii Vânt Presiune Umiditate
    00:00 +12°C° 0 mm 4 m/s 750 mmHg 88%
    01:00 +12°C° 0 mm 4 m/s 750 mmHg 89%
    02:00 +11°C° 0 mm 4 m/s 750 mmHg 90%
    03:00 +11°C° 0 mm 4 m/s 751 mmHg 91%
    04:00 +11°C° 0 mm 4 m/s 751 mmHg 89%
    05:00 +11°C° 0 mm 4 m/s 752 mmHg 88%
    06:00 +11°C° 0 mm 4 m/s 752 mmHg 86%
    07:00 +12°C° 0 mm 5 m/s 752 mmHg 78%
    08:00 +14°C° 0 mm 5 m/s 753 mmHg 71%
    09:00 +15°C° 0 mm 5 m/s 753 mmHg 64%
    10:00 +16°C° 0 mm 5 m/s 753 mmHg 59%
    11:00 +17°C° 0 mm 6 m/s 753 mmHg 55%
    12:00 +19°C° 0 mm 6 m/s 753 mmHg 50%
    13:00 +19°C° 0 mm 6 m/s 753 mmHg 49%
    14:00 +19°C° 0 mm 6 m/s 754 mmHg 47%
    15:00 +19°C° 0 mm 6 m/s 754 mmHg 46%
    16:00 +17°C° 0 mm 5 m/s 754 mmHg 49%
    17:00 +17°C° 0 mm 4 m/s 754 mmHg 52%
    18:00 +15°C° 0 mm 4 m/s 755 mmHg 56%
    19:00 +14°C° 0 mm 3 m/s 755 mmHg 59%
    20:00 +14°C° 0 mm 2 m/s 755 mmHg 62%
    21:00 +12°C° 0 mm 2 m/s 755 mmHg 65%
    22:00 +12°C° 0 mm 2 m/s 756 mmHg 67%
    23:00 +12°C° 0 mm 2 m/s 756 mmHg 68%

    24 August, Vineri

    Timp Temperatura Precipitaţii Vânt Presiune Umiditate
    00:00 +10°C° 0 mm 2 m/s 756 mmHg 70%
    01:00 +10°C° 0 mm 2 m/s 756 mmHg 72%
    02:00 +10°C° 0 mm 2 m/s 756 mmHg 74%
    03:00 +10°C° 0 mm 3 m/s 756 mmHg 76%
    04:00 +10°C° 0 mm 3 m/s 756 mmHg 76%
    05:00 +11°C° 0 mm 3 m/s 756 mmHg 75%
    06:00 +11°C° 0 mm 3 m/s 756 mmHg 75%
    07:00 +13°C° 0 mm 4 m/s 756 mmHg 67%
    08:00 +15°C° 0 mm 4 m/s 756 mmHg 60%
    09:00 +17°C° 0 mm 5 m/s 755 mmHg 52%
    10:00 +19°C° 0 mm 5 m/s 755 mmHg 50%
    11:00 +20°C° 0 mm 5 m/s 755 mmHg 48%
    12:00 +21°C° 0 mm 6 m/s 755 mmHg 46%
    13:00 +22°C° 0 mm 6 m/s 754 mmHg 46%
    14:00 +22°C° 0 mm 6 m/s 754 mmHg 47%
    15:00 +22°C° 0 mm 6 m/s 754 mmHg 47%
    16:00 +22°C° 0 mm 6 m/s 754 mmHg 51%
    17:00 +21°C° 0 mm 5 m/s 753 mmHg 55%
    18:00 +20°C° 0 mm 4 m/s 753 mmHg 60%
    19:00 +19°C° 0 mm 4 m/s 753 mmHg 63%
    20:00 +18°C° 0 mm 4 m/s 753 mmHg 67%
    21:00 +15°C° 0 mm 4 m/s 754 mmHg 71%
    22:00 +16°C° 0 mm 3 m/s 754 mmHg 74%
    23:00 +14°C° 0 mm 3 m/s 754 mmHg 77%

    25 August, Sâmbătă

    Timp Temperatura Precipitaţii Vânt Presiune Umiditate
    00:00 +14°C° 0 mm 3 m/s 754 mmHg 81%
    01:00 +14°C° 0 mm 2 m/s 754 mmHg 84%
    02:00 +13°C° 0 mm 2 m/s 754 mmHg 87%
    03:00 +13°C° 0 mm 2 m/s 754 mmHg 91%
    04:00 +13°C° 0 mm 2 m/s 755 mmHg 90%
    05:00 +13°C° 0 mm 2 m/s 755 mmHg 89%
    06:00 +13°C° 0 mm 2 m/s 755 mmHg 88%
    07:00 +15°C° 0 mm 2 m/s 755 mmHg 78%
    08:00 +17°C° 0 mm 2 m/s 755 mmHg 68%
    09:00 +19°C° 0 mm 2 m/s 756 mmHg 58%
    10:00 +20°C° 0 mm 2 m/s 756 mmHg 53%
    11:00 +21°C° 0 mm 2 m/s 756 mmHg 48%
    12:00 +23°C° 0 mm 2 m/s 756 mmHg 43%
    13:00 +22°C° 0 mm 3 m/s 755 mmHg 41%
    14:00 +22°C° 0 mm 3 m/s 755 mmHg 40%
    15:00 +24°C° 0 mm 3 m/s 755 mmHg 39%
    16:00 +23°C° 0 mm 2 m/s 755 mmHg 44%
    17:00 +21°C° 0 mm 2 m/s 755 mmHg 50%
    18:00 +19°C° 0 mm 2 m/s 755 mmHg 55%
    19:00 +18°C° 0 mm 2 m/s 755 mmHg 59%
    20:00 +18°C° 0 mm 1 m/s 755 mmHg 63%
    21:00 +15°C° 0 mm 1 m/s 756 mmHg 68%
    22:00 +15°C° 0 mm 1 m/s 756 mmHg 71%
    23:00 +14°C° 0 mm 1 m/s 756 mmHg 74%

    26 August, Duminică

    Timp Temperatura Precipitaţii Vânt Presiune Umiditate
    00:00 +13°C° 0 mm 1 m/s 756 mmHg 77%
    01:00 +13°C° 0 mm 1 m/s 756 mmHg 79%
    02:00 +13°C° 0 mm 1 m/s 756 mmHg 80%
    03:00 +13°C° 0 mm 1 m/s 756 mmHg 82%
    04:00 +13°C° 0 mm 1 m/s 756 mmHg 80%
    05:00 +14°C° 0 mm 1 m/s 756 mmHg 79%
    06:00 +14°C° 0 mm 1 m/s 757 mmHg 77%
    07:00 +16°C° 0 mm 1 m/s 757 mmHg 70%
    08:00 +18°C° 0 mm 2 m/s 757 mmHg 62%
    09:00 +20°C° 0 mm 2 m/s 757 mmHg 55%
    10:00 +21°C° 0 mm 2 m/s 756 mmHg 51%
    11:00 +23°C° 0 mm 2 m/s 756 mmHg 47%
    12:00 +24°C° 0 mm 3 m/s 756 mmHg 43%
    13:00 +25°C° 0 mm 3 m/s 756 mmHg 42%
    14:00 +25°C° 0 mm 3 m/s 756 mmHg 42%
    15:00 +25°C° 0 mm 3 m/s 755 mmHg 41%
    16:00 +24°C° 0 mm 3 m/s 755 mmHg 47%
    17:00 +23°C° 0 mm 2 m/s 755 mmHg 53%
    18:00 +21°C° 0 mm 2 m/s 755 mmHg 59%
    19:00 +19°C° 0 mm 2 m/s 755 mmHg 64%
    20:00 +18°C° 0 mm 2 m/s 755 mmHg 69%
    21:00 +18°C° 0 mm 1 m/s 756 mmHg 73%
    22:00 +16°C° 0 mm 1 m/s 756 mmHg 76%
    23:00 +16°C° 0 mm 1 m/s 756 mmHg 78%
    Arată mai mult